Tracking 27423 objects as of 8-Jun-2023
HD Live streaming from Space Station
objects crossing your sky now

STARLINK-1410

Track STARLINK-1410 now!
10-day predictions
STARLINK-1410 is classified as:


NORAD ID: 45705
Int'l Code: 2020-035BA
Perigee: 553.5 km
Apogee: 555.3 km
Inclination: 53.1 °
Period: 95.6 minutes
Semi major axis: 6925 km
RCS: Unknown
Launch date: June 4, 2020
Source: United States (US)
Launch site: AIR FORCE EASTERN TEST RANGE (AFETR)
Your satellite tracking list
Your tracking list is empty




NASA's NSSDC Master Catalog

Two Line Element Set (TLE):
1 45705U 20035BA  23159.48296215  .00020083  00000-0  13640-2 0  9997
2 45705  53.0528 259.1666 0001312 119.3755 240.7365 15.06380184167219
Source of the keplerian elements: AFSPC